| time (UTC) | temp F | wind direction | speed knots | gust knots | rain 1hr in | rain 24hr in | rain mn in | humidity % | barometer mb |
| 20260505153313 | 78 | 213 | 1.7 | 16.5 | 0.00 | 0.00 | 0.00 | 45 | 1010.2 |
| 20260505152813 | 78 | 261 | 5.2 | 16.5 | 0.00 | 0.00 | 0.00 | 39 | 1010.3 |
| 20260505152313 | 77 | 171 | 7.0 | 12.2 | 0.00 | 0.00 | 0.00 | 42 | 1010.2 |
| 20260505151813 | 77 | 182 | 7.0 | 9.6 | 0.00 | 0.00 | 0.00 | 42 | 1010.3 |
| 20260505151313 | 78 | 189 | 2.6 | 9.6 | 0.00 | 0.00 | 0.00 | 42 | 1010.3 |
| 20260505150813 | 76 | 308 | 3.5 | 8.7 | 0.00 | 0.00 | 0.00 | 44 | 1010.3 |
| 20260505150313 | 76 | 235 | 2.6 | 11.3 | 0.00 | 0.00 | 0.00 | 45 | 1010.3 |
| 20260505140313 | 73 | 5 | 1.7 | 8.7 | 0.00 | 0.00 | 0.00 | 48 | 1010.7 |
| 20260505124813 | 66 | 238 | 1.7 | 8.7 | 0.00 | 0.00 | 0.00 | 60 | 1011.2 |
| 20260505124313 | 66 | 250 | 1.7 | 8.7 | 0.00 | 0.00 | 0.00 | 58 | 1011.2 |
| 20260505123813 | 66 | 229 | 3.5 | 6.1 | 0.00 | 0.00 | 0.00 | 61 | 1011.1 |
| 20260505122813 | 65 | 259 | 1.7 | 7.8 | 0.00 | 0.00 | 0.00 | 62 | 1010.9 |
| 20260505122313 | 64 | 222 | 3.5 | 7.8 | 0.00 | 0.00 | 0.00 | 60 | 1010.7 |
| 20260505121813 | 64 | 233 | 3.5 | 7.8 | 0.00 | 0.00 | 0.00 | 62 | 1010.8 |
| 20260505121313 | 64 | 201 | 2.6 | 7.8 | 0.00 | 0.00 | 0.00 | 61 | 1010.8 |
| 20260505120313 | 64 | 303 | 3.5 | 7.8 | 0.00 | 0.00 | 0.00 | 63 | 1010.8 |
| 20260505115813 | 63 | 238 | 0.9 | 7.8 | 0.00 | 0.00 | 0.00 | 65 | 1010.7 |
| 20260505115313 | 63 | 253 | 0.9 | 6.1 | 0.00 | 0.00 | 0.00 | 62 | 1010.8 |
| 20260505114813 | 63 | 248 | 2.6 | 4.3 | 0.00 | 0.00 | 0.00 | 65 | 1010.6 |
| 20260505114313 | 62 | 197 | 1.7 | 4.3 | 0.00 | 0.00 | 0.00 | 65 | 1010.6 |
| 20260505113813 | 61 | 200 | 2.6 | 6.1 | 0.00 | 0.00 | 0.00 | 71 | 1010.7 |
| 20260505113313 | 59 | 264 | 0.0 | 6.1 | 0.00 | 0.00 | 0.00 | 75 | 1010.6 |
| 20260505112313 | 57 | 194 | 0.0 | 2.6 | 0.00 | 0.00 | 0.00 | 78 | 1010.5 |
| 20260505111813 | 57 | 194 | 1.7 | 1.7 | 0.00 | 0.00 | 0.00 | 80 | 1010.4 |
| 20260505111313 | 56 | 194 | 0.0 | 0.9 | 0.00 | 0.00 | 0.00 | 82 | 1010.3 |
| 20260505110813 | 55 | 194 | 0.0 | 1.7 | 0.00 | 0.00 | 0.00 | 82 | 1010.3 |
| 20260505110313 | 54 | 194 | 0.0 | 1.7 | 0.00 | 0.00 | 0.00 | 83 | 1010.2 |
| 20260505101813 | 49 | 292 | 0.9 | 2.6 | 0.00 | 0.00 | 0.00 | 85 | 1010.0 |
| 20260505101313 | 49 | 292 | 1.7 | 3.5 | 0.00 | 0.00 | 0.00 | 85 | 1009.9 |
| 20260505100813 | 50 | 292 | 2.6 | 3.5 | 0.00 | 0.00 | 0.00 | 85 | 1009.9 |
| 20260505100313 | 49 | 292 | 0.0 | 2.6 | 0.00 | 0.00 | 0.00 | 85 | 1009.9 |
| 20260505095313 | 50 | 292 | 0.9 | 1.7 | 0.00 | 0.00 | 0.00 | 85 | 1009.9 |
| 20260505094813 | 50 | 292 | 0.0 | 1.7 | 0.00 | 0.00 | 0.00 | 84 | 1010.0 |
| 20260505094313 | 50 | 292 | 1.7 | 1.7 | 0.00 | 0.00 | 0.00 | 84 | 1010.0 |
| 20260505093813 | 51 | 292 | 0.0 | 1.7 | 0.00 | 0.00 | 0.00 | 84 | 1009.9 |
| 20260505093313 | 51 | 292 | 0.9 | 1.7 | 0.00 | 0.00 | 0.00 | 84 | 1010.0 |
| 20260505092813 | 51 | 292 | 0.0 | 0.0 | 0.00 | 0.00 | 0.00 | 84 | 1010.0 |
| 20260505092313 | 51 | 292 | 0.0 | 1.7 | 0.00 | 0.00 | 0.00 | 84 | 1010.0 |
| 20260505091813 | 52 | 292 | 0.0 | 1.7 | 0.00 | 0.00 | 0.00 | 84 | 1010.0 |
| 20260505090813 | 53 | 292 | 1.7 | 2.6 | 0.00 | 0.00 | 0.00 | 82 | 1010.0 |
| 20260505090313 | 53 | 292 | 0.9 | 0.9 | 0.00 | 0.00 | 0.00 | 83 | 1010.0 |
| 20260505085813 | 53 | 292 | 0.0 | 2.6 | 0.00 | 0.00 | 0.00 | 81 | 1009.9 |
| 20260505085313 | 53 | 292 | 0.0 | 2.6 | 0.00 | 0.00 | 0.00 | 82 | 1010.0 |
| 20260505084813 | 54 | 292 | 0.0 | 2.6 | 0.00 | 0.00 | 0.00 | 80 | 1009.9 |
| 20260505083813 | 54 | 292 | 0.0 | 2.6 | 0.00 | 0.00 | 0.00 | 79 | 1009.8 |
| 20260505083313 | 53 | 292 | 1.7 | 1.7 | 0.00 | 0.00 | 0.00 | 79 | 1009.8 |
| 20260505082313 | 54 | 292 | 0.0 | 1.7 | 0.00 | 0.00 | 0.00 | 79 | 1009.8 |
| 20260505081813 | 53 | 292 | 1.7 | 1.7 | 0.00 | 0.00 | 0.00 | 79 | 1009.8 |
| 20260505081313 | 53 | 292 | 0.0 | 1.7 | 0.00 | 0.00 | 0.00 | 79 | 1009.8 |
| 20260505080813 | 54 | 292 | 0.9 | 2.6 | 0.00 | 0.00 | 0.00 | 79 | 1009.7 |
| 20260505080313 | 54 | 292 | 0.9 | 2.6 | 0.00 | 0.00 | 0.00 | 77 | 1009.7 |
| 20260505075813 | 54 | 292 | 1.7 | 2.6 | 0.00 | 0.00 | 0.00 | 78 | 1009.9 |
| 20260505075313 | 54 | 292 | 1.7 | 1.7 | 0.00 | 0.00 | 0.00 | 78 | 1009.8 |
| 20260505074813 | 55 | 292 | 0.0 | 1.7 | 0.00 | 0.00 | 0.00 | 76 | 1009.8 |
| 20260505073313 | 55 | 292 | 0.9 | 1.7 | 0.00 | 0.00 | 0.00 | 77 | 1010.0 |
| 20260505072813 | 55 | 292 | 0.0 | 1.7 | 0.00 | 0.00 | 0.00 | 75 | 1010.0 |
| 20260505072313 | 55 | 292 | 0.9 | 1.7 | 0.00 | 0.00 | 0.00 | 76 | 1010.0 |
| 20260505071313 | 55 | 292 | 0.0 | 2.6 | 0.00 | 0.00 | 0.00 | 75 | 1010.0 |
| 20260505070813 | 55 | 292 | 1.7 | 2.6 | 0.00 | 0.00 | 0.00 | 75 | 1010.0 |
| 20260505070313 | 55 | 292 | 0.0 | 2.6 | 0.00 | 0.00 | 0.00 | 76 | 1010.1 |
| 20260505065813 | 54 | 292 | 0.9 | 2.6 | 0.00 | 0.00 | 0.00 | 76 | 1010.1 |
| 20260505065313 | 54 | 292 | 0.9 | 2.6 | 0.00 | 0.00 | 0.00 | 75 | 1010.0 |
| 20260505064813 | 55 | 292 | 0.9 | 1.7 | 0.00 | 0.00 | 0.00 | 73 | 1010.0 |
| 20260505064313 | 55 | 292 | 0.0 | 1.7 | 0.00 | 0.00 | 0.00 | 72 | 1010.0 |
| 20260505063813 | 55 | 292 | 0.9 | 2.6 | 0.00 | 0.00 | 0.00 | 72 | 1010.1 |
| 20260505063313 | 55 | 292 | 0.0 | 2.6 | 0.00 | 0.00 | 0.00 | 72 | 1010.1 |
| 20260505062813 | 55 | 292 | 0.0 | 2.6 | 0.00 | 0.00 | 0.00 | 72 | 1010.1 |
| 20260505062313 | 55 | 224 | 0.0 | 3.5 | 0.00 | 0.00 | 0.00 | 70 | 1010.1 |
| 20260505061813 | 55 | 224 | 0.9 | 3.5 | 0.00 | 0.00 | 0.00 | 68 | 1010.1 |
| 20260505061313 | 55 | 248 | 0.0 | 3.5 | 0.00 | 0.00 | 0.00 | 68 | 1010.1 |
| 20260505060813 | 55 | 248 | 2.6 | 5.2 | 0.00 | 0.00 | 0.00 | 68 | 1010.0 |
| 20260505060313 | 54 | 247 | 1.7 | 5.2 | 0.00 | 0.00 | 0.00 | 69 | 1010.1 |
| 20260505055813 | 54 | 272 | 1.7 | 2.6 | 0.00 | 0.00 | 0.00 | 69 | 1010.0 |
| 20260505055313 | 54 | 272 | 0.0 | 2.6 | 0.00 | 0.00 | 0.00 | 67 | 1010.1 |
| 20260505054813 | 55 | 272 | 1.7 | 3.5 | 0.00 | 0.00 | 0.00 | 67 | 1010.0 |
| 20260505054313 | 54 | 227 | 0.0 | 3.5 | 0.00 | 0.00 | 0.00 | 68 | 1010.1 |
| 20260505053813 | 54 | 67 | 0.9 | 5.2 | 0.00 | 0.00 | 0.00 | 67 | 1010.1 |
| 20260505052813 | 54 | 246 | 0.9 | 3.5 | 0.00 | 0.00 | 0.00 | 67 | 1010.0 |
| 20260505052313 | 56 | 246 | 0.9 | 3.5 | 0.00 | 0.00 | 0.00 | 64 | 1010.0 |
| 20260505051813 | 56 | 248 | 2.6 | 3.5 | 0.00 | 0.00 | 0.00 | 64 | 1010.0 |
| 20260505050813 | 55 | 156 | 2.6 | 4.3 | 0.00 | 0.00 | 0.00 | 66 | 1010.0 |
| 20260505050313 | 54 | 147 | 0.9 | 3.5 | 0.00 | 0.00 | 0.00 | 67 | 1010.1 |
| 20260505041313 | 54 | 186 | 1.7 | 3.5 | 0.00 | 0.00 | 0.00 | 67 | 1010.0 |
| 20260505040813 | 54 | 194 | 0.0 | 5.2 | 0.00 | 0.00 | 0.00 | 67 | 1010.1 |
| 20260505040313 | 53 | 194 | 2.6 | 5.2 | 0.00 | 0.00 | 0.00 | 70 | 1010.0 |
| 20260505035813 | 53 | 194 | 1.7 | 2.6 | 0.00 | 0.00 | 0.00 | 70 | 1009.9 |
| 20260505035313 | 53 | 194 | 1.7 | 3.5 | 0.00 | 0.00 | 0.00 | 71 | 1009.9 |
| 20260505034813 | 53 | 194 | 1.7 | 3.5 | 0.00 | 0.00 | 0.00 | 70 | 1009.9 |
| 20260505034313 | 53 | 96 | 0.0 | 1.7 | 0.00 | 0.00 | 0.00 | 69 | 1009.8 |
| 20260505033813 | 53 | 96 | 0.0 | 2.6 | 0.00 | 0.00 | 0.00 | 68 | 1009.8 |
| 20260505033313 | 53 | 96 | 0.9 | 2.6 | 0.00 | 0.00 | 0.00 | 69 | 1009.7 |
| 20260505032813 | 53 | 100 | 0.0 | 1.7 | 0.00 | 0.00 | 0.00 | 68 | 1009.8 |
| 20260505032313 | 54 | 100 | 0.9 | 2.6 | 0.00 | 0.00 | 0.00 | 66 | 1009.8 |
| 20260505031813 | 54 | 96 | 1.7 | 2.6 | 0.00 | 0.00 | 0.00 | 66 | 1009.9 |
| 20260505031313 | 55 | 96 | 0.0 | 2.6 | 0.00 | 0.00 | 0.00 | 63 | 1009.8 |
| 20260505030813 | 55 | 96 | 1.7 | 2.6 | 0.00 | 0.00 | 0.00 | 65 | 1009.8 |
| 20260505030313 | 56 | 123 | 0.9 | 2.6 | 0.00 | 0.00 | 0.00 | 63 | 1009.9 |
| 20260505025813 | 56 | 123 | 0.0 | 3.5 | 0.00 | 0.00 | 0.00 | 62 | 1009.9 |
| 20260505025313 | 56 | 129 | 0.0 | 3.5 | 0.00 | 0.00 | 0.00 | 64 | 1009.9 |
| 20260505023813 | 60 | 253 | 0.0 | 3.5 | 0.00 | 0.00 | 0.00 | 54 | 1009.9 |
| 20260505023313 | 57 | 258 | 0.9 | 2.6 | 0.00 | 0.00 | 0.00 | 59 | 1009.9 |
| 20260505022813 | 57 | 259 | 0.0 | 5.2 | 0.00 | 0.00 | 0.00 | 62 | 1010.1 |
| 20260505022313 | 57 | 259 | 0.0 | 5.2 | 0.00 | 0.00 | 0.00 | 61 | 1010.2 |
| 20260505021313 | 56 | 223 | 0.0 | 4.3 | 0.00 | 0.00 | 0.00 | 62 | 1010.2 |
| 20260505020813 | 56 | 223 | 0.0 | 4.3 | 0.00 | 0.00 | 0.00 | 63 | 1010.2 |
| 20260505020313 | 56 | 205 | 0.0 | 1.7 | 0.00 | 0.00 | 0.00 | 61 | 1010.3 |
| 20260505015813 | 56 | 205 | 0.0 | 2.6 | 0.00 | 0.00 | 0.00 | 62 | 1010.3 |
| 20260505015313 | 57 | 205 | 0.9 | 4.3 | 0.00 | 0.00 | 0.00 | 62 | 1010.2 |
| 20260505014813 | 57 | 205 | 1.7 | 4.3 | 0.00 | 0.00 | 0.00 | 61 | 1010.1 |
| 20260505014313 | 57 | 221 | 2.6 | 2.6 | 0.00 | 0.00 | 0.00 | 61 | 1010.1 |
| 20260505013813 | 58 | 252 | 0.9 | 2.6 | 0.00 | 0.00 | 0.00 | 59 | 1010.1 |
| 20260505013313 | 59 | 252 | 0.0 | 6.1 | 0.00 | 0.00 | 0.00 | 56 | 1010.1 |
| 20260505012813 | 58 | 252 | 2.6 | 6.1 | 0.00 | 0.00 | 0.00 | 60 | 1010.0 |
| 20260505012313 | 58 | 256 | 0.0 | 2.6 | 0.00 | 0.00 | 0.00 | 59 | 1010.0 |
| 20260505011813 | 59 | 256 | 1.7 | 4.3 | 0.00 | 0.00 | 0.00 | 56 | 1010.0 |
| 20260505011313 | 58 | 256 | 0.9 | 4.3 | 0.00 | 0.00 | 0.00 | 57 | 1009.8 |
| 20260505010813 | 58 | 244 | 0.9 | 3.5 | 0.00 | 0.00 | 0.00 | 58 | 1009.8 |
| 20260505010313 | 57 | 244 | 0.0 | 3.5 | 0.00 | 0.00 | 0.00 | 59 | 1009.7 |
| 20260505005313 | 59 | 212 | 0.9 | 4.3 | 0.00 | 0.00 | 0.00 | 57 | 1009.6 |
| 20260505004813 | 59 | 265 | 0.9 | 2.6 | 0.00 | 0.00 | 0.00 | 55 | 1009.5 |
| 20260505004313 | 60 | 265 | 0.9 | 2.6 | 0.00 | 0.00 | 0.00 | 54 | 1009.6 |
| 20260505003313 | 61 | 265 | 0.9 | 3.5 | 0.00 | 0.00 | 0.00 | 51 | 1009.5 |
| 20260505002813 | 62 | 240 | 0.9 | 5.2 | 0.00 | 0.00 | 0.00 | 49 | 1009.5 |
| 20260505002313 | 62 | 223 | 0.0 | 5.2 | 0.00 | 0.00 | 0.00 | 49 | 1009.5 |
| 20260505001813 | 60 | 227 | 5.2 | 5.2 | 0.00 | 0.00 | 0.00 | 52 | 1009.5 |
| 20260505000813 | 61 | 244 | 0.9 | 1.7 | 0.00 | 0.00 | 0.00 | 52 | 1009.3 |
| 20260504235313 | 63 | 250 | 3.5 | 5.2 | 0.00 | 0.00 | 0.00 | 47 | 1009.3 |
| 20260504234313 | 64 | 202 | 0.9 | 3.5 | 0.00 | 0.00 | 0.00 | 47 | 1009.3 |
| 20260504233813 | 64 | 288 | 0.0 | 5.2 | 0.00 | 0.00 | 0.00 | 47 | 1009.2 |
| 20260504233313 | 64 | 90 | 1.7 | 5.2 | 0.00 | 0.00 | 0.00 | 43 | 1009.2 |
| 20260504232813 | 66 | 213 | 0.0 | 4.3 | 0.00 | 0.00 | 0.00 | 42 | 1009.2 |
| 20260504232313 | 66 | 213 | 0.9 | 6.1 | 0.00 | 0.00 | 0.00 | 42 | 1009.1 |
| 20260504231313 | 67 | 209 | 3.5 | 13.0 | 0.00 | 0.00 | 0.00 | 41 | 1009.2 |
| 20260504230813 | 67 | 186 | 4.3 | 5.2 | 0.00 | 0.00 | 0.00 | 43 | 1009.2 |
| 20260504230313 | 67 | 213 | 0.0 | 3.5 | 0.00 | 0.00 | 0.00 | 43 | 1009.1 |
| 20260504225813 | 67 | 255 | 0.9 | 4.3 | 0.00 | 0.00 | 0.00 | 40 | 1009.2 |
| 20260504225313 | 67 | 198 | 3.5 | 7.0 | 0.00 | 0.00 | 0.00 | 42 | 1008.8 |
| 20260504224313 | 68 | 214 | 1.7 | 5.2 | 0.00 | 0.00 | 0.00 | 38 | 1008.8 |
| 20260504223813 | 68 | 274 | 0.9 | 5.2 | 0.00 | 0.00 | 0.00 | 39 | 1008.8 |
| 20260504223313 | 68 | 244 | 0.9 | 6.1 | 0.00 | 0.00 | 0.00 | 39 | 1008.7 |
| 20260504222313 | 68 | 186 | 1.7 | 9.6 | 0.00 | 0.00 | 0.00 | 39 | 1008.7 |
| 20260504221813 | 68 | 242 | 0.9 | 7.8 | 0.00 | 0.00 | 0.00 | 41 | 1008.8 |
| 20260504221313 | 69 | 248 | 2.6 | 16.5 | 0.00 | 0.00 | 0.00 | 38 | 1008.9 |
| 20260504220813 | 69 | 253 | 2.6 | 16.5 | 0.00 | 0.00 | 0.00 | 38 | 1008.8 |
| 20260504220313 | 70 | 261 | 5.2 | 7.8 | 0.00 | 0.00 | 0.00 | 40 | 1008.9 |
| 20260504215813 | 70 | 152 | 3.5 | 8.7 | 0.00 | 0.00 | 0.00 | 37 | 1008.8 |
| 20260504215313 | 70 | 215 | 5.2 | 8.7 | 0.00 | 0.00 | 0.00 | 37 | 1008.8 |
| 20260504213813 | 70 | 197 | 0.9 | 11.3 | 0.00 | 0.00 | 0.00 | 36 | 1008.7 |
| 20260504213313 | 71 | 258 | 0.9 | 7.0 | 0.00 | 0.00 | 0.00 | 39 | 1008.8 |
| 20260504212813 | 71 | 285 | 0.9 | 9.6 | 0.00 | 0.00 | 0.00 | 36 | 1008.9 |
| 20260504211813 | 72 | 259 | 0.9 | 8.7 | 0.00 | 0.00 | 0.00 | 36 | 1008.9 |
| 20260504211313 | 72 | 112 | 0.9 | 10.4 | 0.00 | 0.00 | 0.00 | 33 | 1008.8 |
| 20260504210813 | 72 | 260 | 3.5 | 10.4 | 0.00 | 0.00 | 0.00 | 33 | 1008.9 |
| 20260504210313 | 71 | 255 | 4.3 | 11.3 | 0.00 | 0.00 | 0.00 | 34 | 1008.9 |
| 20260504205813 | 72 | 225 | 6.1 | 11.3 | 0.00 | 0.00 | 0.00 | 33 | 1008.7 |
| 20260504205313 | 73 | 284 | 3.5 | 12.2 | 0.00 | 0.00 | 0.00 | 33 | 1008.9 |
| 20260504204812 | 72 | 275 | 5.2 | 12.2 | 0.00 | 0.00 | 0.00 | 34 | 1008.9 |
| 20260504204313 | 72 | 261 | 1.7 | 12.2 | 0.00 | 0.00 | 0.00 | 33 | 1009.0 |
| 20260504203812 | 73 | 236 | 2.6 | 14.8 | 0.00 | 0.00 | 0.00 | 41 | 1009.0 |
| 20260504203313 | 72 | 333 | 3.5 | 14.8 | 0.00 | 0.00 | 0.00 | 34 | 1009.0 |
| 20260504202813 | 72 | 235 | 1.7 | 13.0 | 0.00 | 0.00 | 0.00 | 35 | 1009.1 |
| 20260504202312 | 71 | 232 | 1.7 | 13.9 | 0.00 | 0.00 | 0.00 | 34 | 1009.1 |
| 20260504201813 | 72 | 273 | 3.5 | 13.9 | 0.00 | 0.00 | 0.00 | 38 | 1009.3 |
| 20260504201313 | 72 | 256 | 1.7 | 7.8 | 0.00 | 0.00 | 0.00 | 39 | 1009.2 |
| 20260504200813 | 72 | 249 | 2.6 | 10.4 | 0.00 | 0.00 | 0.00 | 35 | 1009.3 |
| 20260504195812 | 71 | 180 | 1.7 | 7.8 | 0.00 | 0.00 | 0.00 | 35 | 1009.3 |
| 20260504195312 | 72 | 290 | 1.7 | 10.4 | 0.00 | 0.00 | 0.00 | 34 | 1009.4 |
| 20260504194813 | 71 | 41 | 3.5 | 14.8 | 0.00 | 0.00 | 0.00 | 40 | 1009.4 |
| 20260504194313 | 69 | 272 | 3.5 | 14.8 | 0.00 | 0.00 | 0.00 | 37 | 1009.6 |
| 20260504193813 | 70 | 233 | 3.5 | 12.2 | 0.00 | 0.00 | 0.00 | 35 | 1009.5 |
| 20260504193312 | 72 | 207 | 12.2 | 13.9 | 0.00 | 0.00 | 0.00 | 37 | 1009.6 |
| 20260504192813 | 72 | 295 | 2.6 | 13.9 | 0.00 | 0.00 | 0.00 | 34 | 1009.7 |
| 20260504192312 | 71 | 241 | 7.8 | 13.0 | 0.00 | 0.00 | 0.00 | 35 | 1009.8 |
| 20260504191813 | 71 | 243 | 2.6 | 10.4 | 0.00 | 0.00 | 0.00 | 35 | 1009.8 |
| 20260504191313 | 71 | 274 | 0.9 | 11.3 | 0.00 | 0.00 | 0.00 | 33 | 1009.8 |
| 20260504190813 | 72 | 298 | 4.3 | 12.2 | 0.00 | 0.00 | 0.00 | 35 | 1009.9 |
| 20260504190313 | 71 | 348 | 1.7 | 12.2 | 0.00 | 0.00 | 0.00 | 36 | 1009.9 |
| 20260504185812 | 71 | 231 | 8.7 | 9.6 | 0.00 | 0.00 | 0.00 | 37 | 1010.0 |
| 20260504185313 | 71 | 197 | 0.9 | 10.4 | 0.00 | 0.00 | 0.00 | 36 | 1010.2 |
| 20260504184813 | 72 | 215 | 7.8 | 11.3 | 0.00 | 0.00 | 0.00 | 35 | 1010.3 |
| 20260504184313 | 71 | 232 | 1.7 | 11.3 | 0.00 | 0.00 | 0.00 | 36 | 1010.3 |
| 20260504183813 | 71 | 245 | 2.6 | 8.7 | 0.00 | 0.00 | 0.00 | 39 | 1010.3 |
| 20260504183312 | 70 | 185 | 3.5 | 11.3 | 0.00 | 0.00 | 0.00 | 36 | 1010.3 |
| 20260504182812 | 71 | 227 | 3.5 | 11.3 | 0.00 | 0.00 | 0.00 | 36 | 1010.5 |
| 20260504182312 | 72 | 273 | 2.6 | 10.4 | 0.00 | 0.00 | 0.00 | 35 | 1010.4 |
| 20260504181813 | 71 | 260 | 3.5 | 12.2 | 0.00 | 0.00 | 0.00 | 37 | 1010.6 |
| 20260504181313 | 71 | 255 | 7.0 | 12.2 | 0.00 | 0.00 | 0.00 | 38 | 1010.6 |
| 20260504180813 | 70 | 360 | 8.7 | 10.4 | 0.00 | 0.00 | 0.00 | 37 | 1010.7 |
| 20260504180313 | 70 | 267 | 3.5 | 10.4 | 0.00 | 0.00 | 0.00 | 35 | 1010.8 |
| 20260504175313 | 70 | 349 | 3.5 | 10.4 | 0.00 | 0.00 | 0.00 | 36 | 1010.9 |
| 20260504174813 | 70 | 182 | 8.7 | 10.4 | 0.00 | 0.00 | 0.00 | 38 | 1010.9 |
| 20260504174312 | 70 | 257 | 4.3 | 10.4 | 0.00 | 0.00 | 0.00 | 38 | 1011.0 |
| 20260504173313 | 70 | 225 | 3.5 | 12.2 | 0.00 | 0.00 | 0.00 | 35 | 1011.2 |
| 20260504172813 | 70 | 299 | 2.6 | 11.3 | 0.00 | 0.00 | 0.00 | 37 | 1011.3 |
| 20260504171812 | 70 | 338 | 7.8 | 13.0 | 0.00 | 0.00 | 0.00 | 39 | 1011.5 |
| 20260504171313 | 69 | 269 | 7.8 | 13.0 | 0.00 | 0.00 | 0.00 | 34 | 1011.6 |
| 20260504170812 | 69 | 237 | 13.0 | 13.0 | 0.00 | 0.00 | 0.00 | 40 | 1011.6 |
| 20260504170313 | 69 | 321 | 7.8 | 12.2 | 0.00 | 0.00 | 0.00 | 38 | 1011.8 |
| 20260504160313 | 68 | 189 | 5.2 | 10.4 | 0.00 | 0.00 | 0.00 | 38 | 1012.4 |